Location: ?????
(37.7324°N, 23.9257°E)
Time: 21:35:19
(UTC+00:00)

Cosmos 1538 Rocket - Pass Details

Date: 29 November 2020
Orbit: 752 x 791 km, 74.0° (Epoch: 18 January)

Event Time Altitude Azimuth Distance (km) Brightness Sun altitude
Exits shadow 02:53:15 65° 157° (SSE) 851 4.2 -28.3°
Drops below altitude 10° 02:57:40 10° 162° (SSE) 2,301 6.7 -27.5°
Sets 03:00:01 0° 163° (SSE) 3,217 7.5 -27.0°
